SCP
0 0 0 0 0 0 0 0 0 0 0 0 0 0 0 0 0 0 0 0 0 0
0 0 0 0 0 0 0 0 0 0 0 0 0 0 0 0 0 0 0 0 0 0
0 0 0 0 0 0 0 0 0 0 0 0 0 0 0 0 0 0 0 0 0 0
0 0 0 0 0 0 0 0 0 0 0 0 0 0 0 0 0 0 0 0 0 0
0 0 0 0 0 0 0 0 0 0 0 0 0 0 0 0 0 0 0 0 0 0
0 0 0 0 0 0 0 0 0 0 0 0 0 0 0 0 0 0 0 0 0 0
0 0 0 0 0 0 0 0 0 0 0 0 0 0 0 0 0 0 0 0 0 0
0 0 0 0 0 0 0 0 0 0 0 0 0 0 0 0 0 0 0 0 0 0
0 0 0 0 0 0 0 0 0 0 0 0 0 0 -0 0 0 0 0 0 0 0
0 0 0 0 0 0 0 0 0 0 0 0 0 -0 -0 0 0 0 0 0 0 0
0 0 0 0 0 0 0 0 0 0 0 0 0 -0 -0 0 0 0 0 0 0 -0
0 0 0 0 0 0 0 0 0 0 -0 -0 -0 0 -0 -0 0 0 0 0 0 -0
0 0 0 0 0 0 0 0 0 0 0 0 0 -0 -0 0 0 0 0 0 0 -0
0 0 0 0 0 0 0 0 0 0 0 0 0 0 0 0 0 0 0 0 0 0
Wind_Speed_500mb
44 47 48 53 59 64 65 65 54 47 43 39 33 32 36 38 42 44 46 48 50 54
41 43 48 54 61 64 61 57 48 42 39 37 36 37 38 42 44 46 48 51 52 53
37 41 48 57 59 56 52 45 39 38 36 38 38 39 39 42 44 47 49 51 54 55
34 38 48 53 50 47 43 38 35 35 37 39 41 41 44 45 47 49 51 54 58 59
31 38 43 44 45 43 38 35 35 35 40 42 45 44 46 48 52 56 58 56 56 58
29 34 37 37 39 40 35 32 31 35 38 38 39 42 43 44 48 53 51 55 58 59
26 27 31 33 35 37 31 29 31 33 33 34 36 37 39 35 40 47 53 53 53 56
25 22 27 31 34 35 30 26 29 30 30 31 31 29 28 37 43 47 46 47 50 52
27 25 25 28 30 31 25 22 23 26 30 29 27 27 29 33 35 36 39 44 47 50
30 31 27 27 25 26 22 20 23 26 29 28 25 24 26 27 27 28 31 35 38 38
31 32 32 30 25 21 24 22 23 23 23 23 22 22 22 22 25 26 28 29 30 33
29 29 30 28 24 23 22 21 18 18 18 20 21 19 16 19 22 27 28 31 35 41
28 27 28 25 22 19 17 17 14 15 21 25 23 23 20 22 23 24 24 27 33 41
26 24 26 23 18 17 16 19 19 21 26 23 21 21 19 18 19 23 27 30 32 37
Wind_Direction_500mb
296 300 302 305 307 309 309 308 307 303 301 300 294 291 288 287 288 288 286 284 280 276
298 301 305 308 309 308 307 306 306 306 304 302 297 292 287 285 286 285 284 283 284 282
297 302 308 311 311 308 305 303 304 303 302 301 297 292 289 288 285 285 283 283 284 281
299 307 313 314 314 310 306 302 299 300 297 293 292 291 287 284 284 282 278 277 278 277
301 312 318 321 322 315 309 308 305 300 297 293 292 291 287 284 281 281 279 278 278 280
300 315 323 327 327 320 317 317 314 308 304 303 303 299 296 292 287 284 285 284 283 281
293 313 326 331 331 327 323 323 320 319 315 313 311 308 305 303 300 296 289 288 285 283
280 304 325 333 336 333 329 329 327 331 328 321 317 319 322 310 299 300 299 296 294 290
270 282 316 328 338 329 335 337 336 337 340 338 336 328 325 311 314 315 311 307 302 296
270 273 293 315 326 334 338 343 347 345 349 351 348 345 346 336 330 325 324 322 321 319
272 273 280 301 298 329 343 348 350 349 355 355 356 2 6 360 355 352 348 344 345 346
272 274 278 291 297 297 309 344 346 354 357 352 352 352 1 355 348 347 349 355 360 5
268 271 275 284 291 307 307 308 311 326 332 336 330 330 340 343 337 339 353 358 4 11
266 267 269 275 283 287 294 294 298 308 323 332 336 339 341 351 353 1 5 8 13 15
Wind_Speed_850mb
44 47 48 53 59 64 65 65 54 47 43 39 33 32 36 38 42 44 46 48 50 54
41 43 48 54 61 64 61 57 48 42 39 37 36 37 38 42 44 46 48 51 52 53
37 41 48 57 59 56 52 45 39 38 36 38 38 39 39 42 44 47 49 51 54 55
34 38 48 53 50 47 43 38 35 35 37 39 41 41 44 45 47 49 51 54 58 59
31 38 43 44 45 43 38 35 35 35 40 42 45 44 46 48 52 56 58 56 56 58
29 34 37 37 39 40 35 32 31 35 38 38 39 42 43 44 48 53 51 55 58 59
26 27 31 33 35 37 31 29 31 33 33 34 36 37 39 35 40 47 53 53 53 56
25 22 27 31 34 35 30 26 29 30 30 31 31 29 28 37 43 47 46 47 50 52
27 25 25 28 30 31 25 22 23 26 30 29 27 27 29 33 35 36 39 44 47 50
30 31 27 27 25 26 22 20 23 26 29 28 25 24 26 27 27 28 31 35 38 38
31 32 32 30 25 21 24 22 23 23 23 23 22 22 22 22 25 26 28 29 30 33
29 29 30 28 24 23 22 21 18 18 18 20 21 19 16 19 22 27 28 31 35 41
28 27 28 25 22 19 17 17 14 15 21 25 23 23 20 22 23 24 24 27 33 41
26 24 26 23 18 17 16 19 19 21 26 23 21 21 19 18 19 23 27 30 32 37
Wind_Direction_850mb
296 300 302 305 307 309 309 308 307 303 301 300 294 291 288 287 288 288 286 284 280 276
298 301 305 308 309 308 307 306 306 306 304 302 297 292 287 285 286 285 284 283 284 282
297 302 308 311 311 308 305 303 304 303 302 301 297 292 289 288 285 285 283 283 284 281
299 307 313 314 314 310 306 302 299 300 297 293 292 291 287 284 284 282 278 277 278 277
301 312 318 321 322 315 309 308 305 300 297 293 292 291 287 284 281 281 279 278 278 280
300 315 323 327 327 320 317 317 314 308 304 303 303 299 296 292 287 284 285 284 283 281
293 313 326 331 331 327 323 323 320 319 315 313 311 308 305 303 300 296 289 288 285 283
280 304 325 333 336 333 329 329 327 331 328 321 317 319 322 310 299 300 299 296 294 290
270 282 316 328 338 329 335 337 336 337 340 338 336 328 325 311 314 315 311 307 302 296
270 273 293 315 326 334 338 343 347 345 349 351 348 345 346 336 330 325 324 322 321 319
272 273 280 301 298 329 343 348 350 349 355 355 356 2 6 360 355 352 348 344 345 346
272 274 278 291 297 297 309 344 346 354 357 352 352 352 1 355 348 347 349 355 360 5
268 271 275 284 291 307 307 308 311 326 332 336 330 330 340 343 337 339 353 358 4 11
266 267 269 275 283 287 294 294 298 308 323 332 336 339 341 351 353 1 5 8 13 15